Weather History for Arad, Romania

Change the Weather History Date:

Monday, September 23, 2013

  Actual Average Record
Temperature  
Mean Temperature 54 °F -  
Max Temperature 66 °F 64 °F 86 °F (2003)
Min Temperature 42 °F 44 °F 39 °F (1997)
Degree Days  
Heating Degree Days 11    
Growing Degree Days 4 (Base 50)    
Moisture  
Dew Point 52 °F    
Average Humidity 78    
Maximum Humidity 100    
Minimum Humidity 52    
Precipitation  
Precipitation 0.00 in - - ()
Sea Level Pressure  
Sea Level Pressure 30.06 in    
Wind  
Wind Speed 5 mph ()    
Max Wind Speed 18 mph    
Max Gust Speed -    
Visibility 6.1 miles    
Events      
Averages and records for this station are not official NWS values.
T = Trace of Precipitation, MM = Missing Value Source: Averaged Metar Reports

Daily Weather History Graph

Daily Weather History Graph

Search for Another Location

Airport:

Trip Planner

Search our weather history database for the weather conditions in past years. The results will help you decide how hot, cold, wet, or windy it might be!

Date:

Astronomy

Sep. 23, 2013 Rise Set
Actual Time 7:23 AM EEST 7:30 PM EEST
Civil Twilight 6:53 AM EEST 8:00 PM EEST
Nautical Twilight 6:17 AM EEST 8:35 PM EEST
Astronomical Twilight 5:41 AM EEST 9:11 PM EEST
Moon 9:34 PM EEST (9/23) 11:39 AM EEST (9/23)
Length of Visible Light 13h 07m
Length of Day
12h 07m
Waning Gibbous, 84% of the Moon is Illuminated
Sep 23
Waning Gibbous
Sep 27
Last Quarter
Oct 5
New
Oct 12
First Quarter
Oct 19
Full

Hourly Weather History & Observations

Time (EEST) Temp. Windchill Dew Point Humidity Pressure Visibility Wind Dir Wind Speed Gust Speed Precip Events Conditions
12:00 AM 46 °F - 44 °F 91% 30.22 in 6 mi Calm Calm - -  
12:00 AM - - - N/A% 30.18 in 6.2 mi Variable 2.3 mph - N/A   Unknown
1:00 AM 48 °F - 44 °F 81% 30.21 in 6 mi SSE 2.2 mph - -  
1:00 AM - - - N/A% 30.18 in 6.2 mi Variable 2.3 mph - N/A   Unknown
2:00 AM 46 °F - 43 °F 84% 30.21 in 6 mi West 2.2 mph - -  
2:00 AM - - - N/A% 30.18 in 6.2 mi Calm Calm - N/A   Unknown
3:00 AM 44 °F - 43 °F 93% 30.20 in 6 mi SSW 2.2 mph - -  
3:00 AM - - - N/A% 30.15 in 6.2 mi SSW 2.3 mph - N/A   Unknown
4:00 AM 45 °F - 43 °F 89% 30.18 in 6 mi SSW 2.2 mph - -  
4:00 AM - - - N/A% 30.15 in 6.2 mi Variable 2.3 mph - N/A   Unknown
5:00 AM 44 °F - 43 °F 94% 30.17 in 6 mi Calm Calm - -  
5:00 AM 44.6 °F - 44.6 °F 100% 30.15 in - WSW 2.3 mph - N/A   Clear
5:30 AM - - - N/A% 30.12 in 6.2 mi SW 2.3 mph - N/A   Unknown
6:00 AM 45 °F - 43 °F 90% 30.15 in 6 mi South 2.2 mph - -  
6:00 AM 46.4 °F 45.2 °F 46.4 °F 100% 30.12 in - South 3.5 mph - N/A   Clear
6:30 AM 46.4 °F 44.3 °F 46.4 °F 100% 30.12 in - South 4.6 mph - N/A   Clear
7:00 AM 46 °F - 44 °F 92% 30.14 in 6 mi South 2.2 mph - -   Mostly Cloudy
7:00 AM 48.2 °F - 48.2 °F 100% 30.12 in - SSW 3.5 mph - N/A   Clear
7:30 AM 48.2 °F - 48.2 °F 100% 30.09 in - South 5.8 mph - N/A   Clear
8:00 AM 49 °F - 46 °F 86% 30.12 in 6 mi SSW 2.2 mph - -   Mostly Cloudy
8:00 AM 48.2 °F - 48.2 °F 100% 30.09 in - SSW 4.6 mph - N/A   Clear
8:30 AM 50.0 °F - 50.0 °F 100% 30.09 in 6.2 mi SSW 4.6 mph - N/A   Partly Cloudy
9:00 AM 50 °F - 47 °F 87% 30.12 in 6 mi South 2.2 mph - -   Overcast
9:00 AM 50.0 °F - 50.0 °F 100% 30.09 in 6.2 mi SW 6.9 mph - N/A   Mostly Cloudy
9:30 AM 51.8 °F - 51.8 °F 100% 30.09 in 6.2 mi SW 6.9 mph - N/A   Mostly Cloudy
10:00 AM 52 °F - 48 °F 82% 30.11 in 6 mi South 4.5 mph - -   Partly Cloudy
10:00 AM 53.6 °F - 53.6 °F 100% 30.06 in 6.2 mi SW 6.9 mph - N/A   Mostly Cloudy
10:30 AM 57.2 °F - 53.6 °F 88% 30.09 in 6.2 mi WSW 9.2 mph - N/A   Partly Cloudy
11:00 AM 57 °F - 50 °F 70% 30.10 in 6 mi SW 4.5 mph - -   Mostly Cloudy
11:00 AM 60.8 °F - 55.4 °F 82% 30.09 in 6.2 mi West 11.5 mph - N/A   Scattered Clouds
11:30 AM 62.6 °F - 55.4 °F 77% 30.06 in 6.2 mi WNW 13.8 mph - N/A   Scattered Clouds
12:00 PM 62 °F - 51 °F 58% 30.08 in 6 mi West 4.5 mph - -   Scattered Clouds
12:00 PM 62.6 °F - 53.6 °F 72% 30.06 in 6.2 mi WNW 13.8 mph - N/A   Mostly Cloudy
12:30 PM 62.6 °F - 53.6 °F 72% 30.04 in 6.2 mi WNW 13.8 mph - N/A   Mostly Cloudy
1:00 PM 62 °F - 52 °F 61% 30.06 in 6 mi West 4.5 mph - -   Overcast
1:00 PM 62.6 °F - 53.6 °F 72% 30.04 in 6.2 mi WNW 13.8 mph - N/A   Mostly Cloudy
1:30 PM 64.4 °F - 55.4 °F 73% 30.04 in 6.2 mi WNW 13.8 mph - N/A   Mostly Cloudy
2:00 PM 64 °F - 53 °F 58% 30.05 in 6 mi West 4.5 mph - -   Overcast
2:00 PM 64.4 °F - 55.4 °F 73% 30.04 in 6.2 mi WNW 16.1 mph - N/A   Mostly Cloudy
2:30 PM 64.4 °F - 55.4 °F 73% 30.04 in 6.2 mi WNW 16.1 mph - N/A   Mostly Cloudy
3:00 PM 64 °F - 52 °F 55% 30.03 in 6 mi West 4.5 mph - -   Overcast
3:00 PM 64.4 °F - 55.4 °F 73% 30.01 in 6.2 mi West 11.5 mph - N/A   Mostly Cloudy
3:30 PM 66.2 °F - 57.2 °F 73% 30.01 in 6.2 mi WSW 9.2 mph - N/A   Mostly Cloudy
4:00 PM 65 °F - 53 °F 56% 30.00 in 6 mi WSW 2.2 mph - -   Overcast
4:00 PM 66.2 °F - 55.4 °F 68% 29.98 in 6.2 mi WNW 16.1 mph - N/A   Mostly Cloudy
4:30 PM 66.2 °F - 55.4 °F 68% 29.98 in 6.2 mi West 16.1 mph - N/A   Mostly Cloudy
5:00 PM 66 °F - 53 °F 53% 29.98 in 6 mi West 4.5 mph - -   Overcast
5:00 PM 66.2 °F - 57.2 °F 73% 29.98 in 6.2 mi West 11.5 mph - N/A   Mostly Cloudy
5:30 PM 66.2 °F - 55.4 °F 68% 29.95 in 6.2 mi WNW 16.1 mph - N/A   Mostly Cloudy
6:00 PM 66 °F - 54 °F 56% 29.96 in 6 mi West 4.5 mph - -   Mostly Cloudy
6:00 PM 66.2 °F - 55.4 °F 68% 29.95 in 6.2 mi WNW 18.4 mph - N/A   Mostly Cloudy
6:30 PM 66.2 °F - 55.4 °F 68% 29.95 in 6.2 mi NW 16.1 mph - N/A   Mostly Cloudy
7:00 PM 66 °F - 53 °F 52% 29.96 in 6 mi WNW 4.5 mph - -   Mostly Cloudy
7:00 PM 66.2 °F - 55.4 °F 68% 29.95 in 6.2 mi WNW 13.8 mph - N/A   Mostly Cloudy
7:30 PM 64.4 °F - 55.4 °F 73% 29.95 in 6.2 mi WNW 11.5 mph - N/A   Mostly Cloudy
8:00 PM 65 °F - 53 °F 56% 29.95 in 6 mi West 4.5 mph - -   Mostly Cloudy
8:00 PM 64.4 °F - 55.4 °F 73% 29.95 in 6.2 mi West 13.8 mph - N/A   Partly Cloudy
8:30 PM 60.8 °F - 55.4 °F 82% 29.95 in - West 11.5 mph - N/A   Clear
9:00 PM 64 °F - 53 °F 59% 29.95 in 6 mi West 4.5 mph - -   Partly Cloudy
9:00 PM 60.8 °F - 55.4 °F 82% 29.95 in - West 9.2 mph - N/A   Clear
9:30 PM 59.0 °F - 55.4 °F 88% 29.95 in - West 11.5 mph - N/A   Clear
10:00 PM 62 °F - 53 °F 65% 29.95 in 6 mi West 4.5 mph - -   Partly Cloudy
10:00 PM 60.8 °F - 55.4 °F 82% 29.95 in - WNW 13.8 mph - N/A   Clear
11:00 PM 60 °F - 53 °F 70% 29.95 in 6 mi West 2.2 mph - -   Scattered Clouds
11:00 PM 57.2 °F - 55.4 °F 94% 29.95 in 6.2 mi West 9.2 mph - N/A   Unknown